Location: Unspecified
(0.0000°N, 0.0000°E)
Time: 18:52:32
(UTC+02:00)

SWIFT - Visible Passes

Search period start: 25 May 2016 00:00
Search period end: 04 June 2016 00:00
Orbit: 549 x 565 km, 20.6° (Epoch: 23 May)

Date Brightness Start Highest point End Pass type
(mag) Time Alt. Az. Time Alt. Az. Time Alt. Az.
25 May 4.0 06:03:09 25° SE 06:03:09 25° SE 06:05:46 10° E visible
25 May 4.2 21:20:55 10° WSW 21:23:55 18° SSW 21:24:38 17° S visible
26 May 3.9 05:58:47 30° ESE 05:58:47 30° ESE 06:01:26 10° E visible
26 May 4.5 21:17:03 10° SW 21:19:20 14° SSW 21:20:15 13° S visible
27 May 3.8 05:54:23 34° E 05:54:23 34° E 05:56:57 10° E visible
27 May 3.4 07:30:57 10° W 07:34:49 35° NNW 07:38:42 10° NE visible
27 May 4.8 21:13:45 10° SSW 21:14:46 11° SSW 21:15:48 10° S visible
28 May 3.9 05:49:58 33° ENE 05:49:58 33° ENE 05:52:22 10° ENE visible
28 May 3.9 07:26:38 10° WNW 07:30:10 26° NNW 07:33:42 10° NE visible
29 May 4.2 05:45:32 29° NE 05:45:32 29° NE 05:47:40 10° ENE visible
29 May 4.3 07:22:28 10° WNW 07:25:32 19° NNW 07:28:36 10° NNE visible
30 May 4.5 05:41:04 23° NE 05:41:04 23° NE 05:42:52 10° NE visible
30 May 4.6 07:18:32 10° NW 07:20:56 15° NNW 07:23:20 10° NNE visible
31 May 4.8 05:36:34 18° NNE 05:36:34 18° NNE 05:37:57 10° NE visible
31 May 4.8 07:15:02 10° NW 07:16:21 11° NNW 07:17:41 10° N visible
01 Jun 5.1 05:32:03 14° NNE 05:32:03 14° NNE 05:32:57 10° NE visible
02 Jun 5.4 05:27:31 11° NNE 05:27:31 11° NNE 05:27:49 10° NNE visible
